Grand Junction, CO

3:56 AM MDT on August 21, 2019 (GMT -0600)
Walker

Weather History for KGJT - May, 2019

Change the Weather History Date:

Thursday, May 9, 2019

  Actual Average Record
Temperature  
Mean Temperature 51 °F 59 °F  
Max Temperature 63 °F 74 °F 92 °F (1977)
Min Temperature 38 °F 45 °F 26 °F (2002)
Degree Days  
Heating Degree Days 14 7  
Month to date heating degree days 98 69  
Since 1 July heating degree days 5495 5503  
Cooling Degree Days 0 1  
Month to date cooling degree days 0 6  
Year to date cooling degree days 1 9  
Growing Degree Days 3 (Base 50)    
Moisture  
Dew Point 34 °F    
Average Humidity 55    
Maximum Humidity 79    
Minimum Humidity 30    
Precipitation  
Precipitation T in 0.04 in 0.74 in (2003)
Month to date precipitation 0.12 0.29  
Year to date precipitation 5.17 3.24  
Snow  
Snow 0.00 in 0.00 in 2.70 in (2003)
Month to date snowfall 0.0 0.1  
Since 1 July snowfall 17.4 19.1  
Snow Depth 0.00 in    
Sea Level Pressure  
Sea Level Pressure 29.83 in    
Wind  
Wind Speed 6 mph (North)    
Max Wind Speed 25 mph    
Max Gust Speed 33 mph    
Visibility 10 miles    
Events Rain    
T = Trace of Precipitation, MM = Missing Value Source: NWS Daily Summary

Daily Weather History Graph

Daily Weather History Graph

Search for Another Location

Airport or City:

Astronomy

May. 09, 2019 Rise Set
Actual Time 6:07 AM MDT 8:14 PM MDT
Civil Twilight 5:37 AM MDT 8:44 PM MDT
Nautical Twilight 5:01 AM MDT 9:20 PM MDT
Astronomical Twilight 4:21 AM MDT 10:00 PM MDT
Moon 10:06 AM MDT (5/9) 12:16 AM MDT (5/9)
Length of Visible Light 15h 06m
Length of Day
14h 07m
Waxing Crescent, 25% of the Moon is Illuminated
May 9
Waxing Crescent
May 11
First Quarter
May 18
Full
May 26
Last Quarter
Jun 3
New

Hourly Weather History & Observations

Time (MDT) Temp. Windchill Dew Point Humidity Pressure Visibility Wind Dir Wind Speed Gust Speed Precip Events Conditions
12:53 AM 43.0 °F - 33.1 °F 68% 29.86 in 10.0 mi Calm Calm - N/A   Scattered Clouds
1:53 AM 39.0 °F 35.7 °F 33.1 °F 79% 29.86 in 10.0 mi NNE 4.6 mph - N/A   Clear
2:53 AM 39.9 °F 36.7 °F 33.1 °F 77% 29.85 in 10.0 mi North 4.6 mph - N/A   Partly Cloudy
3:53 AM 41.0 °F 38.0 °F 32.0 °F 70% 29.84 in 10.0 mi NNW 4.6 mph - N/A   Mostly Cloudy
4:53 AM 41.0 °F 36.4 °F 33.1 °F 73% 29.84 in 10.0 mi North 6.9 mph - N/A   Overcast
5:53 AM 43.0 °F 38.8 °F 33.1 °F 68% 29.83 in 10.0 mi North 6.9 mph - N/A   Overcast
6:53 AM 44.1 °F 40.1 °F 33.1 °F 65% 29.83 in 10.0 mi NNE 6.9 mph - N/A   Overcast
7:53 AM 45.0 °F 40.6 °F 33.1 °F 63% 29.86 in 10.0 mi North 8.1 mph - N/A   Overcast
8:53 AM 46.9 °F - 33.1 °F 59% 29.88 in 10.0 mi NNW 6.9 mph - N/A   Overcast
9:53 AM 48.9 °F - 35.1 °F 59% 29.88 in 10.0 mi NNW 5.8 mph - N/A   Scattered Clouds
10:53 AM 52.0 °F - 35.1 °F 53% 29.87 in 10.0 mi Variable 3.5 mph - N/A   Scattered Clouds
11:53 AM 54.0 °F - 35.1 °F 49% 29.86 in 10.0 mi WNW 5.8 mph - N/A   Clear
12:53 PM 55.9 °F - 35.1 °F 45% 29.85 in 10.0 mi North - - N/A   Clear
1:53 PM 57.9 °F - 34.0 °F 41% 29.83 in 10.0 mi WNW 5.8 mph - N/A   Scattered Clouds
2:53 PM 61.0 °F - 32.0 °F 34% 29.80 in 10.0 mi WNW 5.8 mph - N/A   Partly Cloudy
3:53 PM 60.1 °F - 30.0 °F 32% 29.77 in 10.0 mi WNW 6.9 mph - N/A   Partly Cloudy
4:53 PM 62.1 °F - 30.9 °F 31% 29.74 in 10.0 mi NNW 8.1 mph - N/A   Scattered Clouds
5:53 PM 61.0 °F - 30.9 °F 32% 29.73 in 10.0 mi NNW 5.8 mph - N/A   Clear
6:53 PM 60.1 °F - 30.9 °F 33% 29.75 in 10.0 mi WSW 5.8 mph - N/A   Overcast
7:23 PM 55.0 °F - 37.9 °F 53% 29.87 in 10.0 mi SSE 23.0 mph 33.4 mph 0.00 in Rain Light Rain
7:53 PM 54.0 °F - 37.0 °F 53% 29.80 in 10.0 mi SE 13.8 mph - 0.00 in Rain Light Rain
8:53 PM 51.1 °F - 39.0 °F 63% 29.83 in 10.0 mi ESE 8.1 mph - 0.00 in   Scattered Clouds
9:53 PM 50.0 °F - 39.0 °F 66% 29.85 in 10.0 mi East 3.5 mph - N/A   Overcast
10:53 PM 51.1 °F - 39.0 °F 63% 29.86 in 10.0 mi ENE 3.5 mph - N/A   Overcast
11:53 PM 50.0 °F - 39.0 °F 66% 29.86 in 10.0 mi NE 6.9 mph - N/A   Overcast